Weather History for KERV - October, 2012

Change the Weather History Date:

Sunday, October 21, 2012

  Actual Average (KHDO) Record (KHDO)
Temperature  
Mean Temperature 78 °F -  
Max Temperature 86 °F 79 °F 91 °F (2012)
Min Temperature 71 °F 56 °F 41 °F (1999)
Cooling Degree Days 14    
Growing Degree Days 28 (Base 50)    
Moisture  
Dew Point 66 °F    
Average Humidity 71    
Maximum Humidity 88    
Minimum Humidity 48    
Precipitation  
Precipitation 0.00 in - - ()
Sea Level Pressure  
Sea Level Pressure 29.92 in    
Wind  
Wind Speed 11 mph (SSE)    
Max Wind Speed 21 mph    
Max Gust Speed 26 mph    
Visibility 10 miles    
Events      
Averages and records for this station are not official NWS values.
T = Trace of Precipitation, MM = Missing Value Source: NWS Daily Summary

Daily Weather History Graph

Daily Weather History Graph

Search for Another Location

Airport or City:

Trip Planner

Search our weather history database for the weather conditions in past years. The results will help you decide how hot, cold, wet, or windy it might be!

Date:

Astronomy

Oct. 21, 2012 Rise Set
Actual Time 7:42 AM CDT 6:58 PM CDT
Civil Twilight 7:18 AM CDT 7:22 PM CDT
Nautical Twilight 6:50 AM CDT 7:50 PM CDT
Astronomical Twilight 6:22 AM CDT 8:18 PM CDT
Moon 1:56 PM CDT (10/21) No Moon Set
Length of Visible Light 12h 04m
Length of Day
11h 16m
Waxing Crescent, 45% of the Moon is Illuminated
Oct 21
Waxing Crescent
Oct 21
First Quarter
Oct 29
Full
Nov 6
Last Quarter
Nov 13
New

Hourly Weather History & Observations

Time (CDT) Temp. Heat Index Dew Point Humidity Pressure Visibility Wind Dir Wind Speed Gust Speed Precip Events Conditions
12:35 AM 73.4 °F - 69.8 °F 88% 29.89 in 7.0 mi SSE 8.1 mph - N/A   Overcast
12:55 AM 71.6 °F - 68.0 °F 88% 29.89 in 7.0 mi SSE 10.4 mph 16.1 mph N/A   Overcast
1:15 AM 71.6 °F - 68.0 °F 88% 29.89 in 7.0 mi SSE 12.7 mph 17.3 mph N/A   Overcast
1:35 AM 71.6 °F - 68.0 °F 88% 29.90 in 7.0 mi SSE 10.4 mph - N/A   Overcast
2:15 AM 71.6 °F - 68.0 °F 88% 29.90 in 10.0 mi South 9.2 mph - N/A   Overcast
2:35 AM 71.6 °F - 68.0 °F 88% 29.90 in 10.0 mi SSE 11.5 mph - N/A   Overcast
2:55 AM 71.6 °F - 68.0 °F 88% 29.90 in 10.0 mi South 10.4 mph - N/A   Overcast
3:15 AM 71.6 °F - 68.0 °F 88% 29.90 in 10.0 mi South 9.2 mph 16.1 mph N/A   Overcast
3:35 AM 71.6 °F - 68.0 °F 88% 29.90 in 10.0 mi South 9.2 mph - N/A   Overcast
3:55 AM 71.6 °F - 68.0 °F 88% 29.89 in 10.0 mi South 11.5 mph - N/A   Overcast
4:15 AM 71.6 °F - 68.0 °F 88% 29.89 in 10.0 mi South 12.7 mph 18.4 mph N/A   Overcast
4:35 AM 71.6 °F - 68.0 °F 88% 29.90 in 10.0 mi South 12.7 mph - N/A   Overcast
5:15 AM 71.6 °F - 68.0 °F 88% 29.90 in 10.0 mi South 12.7 mph - N/A   Overcast
6:15 AM 71.6 °F - 68.0 °F 88% 29.90 in 10.0 mi South 12.7 mph - N/A   Overcast
6:35 AM 71.6 °F - 68.0 °F 88% 29.91 in 10.0 mi South 9.2 mph - N/A   Overcast
6:55 AM 71.6 °F - 68.0 °F 88% 29.92 in 10.0 mi South 10.4 mph - N/A   Overcast
7:15 AM 71.6 °F - 68.0 °F 88% 29.92 in 10.0 mi South 9.2 mph - N/A   Overcast
7:35 AM 71.6 °F - 68.0 °F 88% 29.92 in 7.0 mi South 11.5 mph - N/A   Overcast
7:55 AM 71.6 °F - 68.0 °F 88% 29.92 in 10.0 mi South 9.2 mph - N/A   Overcast
8:35 AM 71.6 °F - 68.0 °F 88% 29.95 in 7.0 mi South 10.4 mph - N/A   Overcast
8:55 AM 71.6 °F - 68.0 °F 88% 29.96 in 7.0 mi South 9.2 mph - N/A   Overcast
9:35 AM 71.6 °F - 68.0 °F 88% 29.97 in 7.0 mi South 9.2 mph 16.1 mph N/A   Overcast
10:15 AM 73.4 °F - 68.0 °F 83% 29.97 in 10.0 mi South 17.3 mph 21.9 mph N/A   Overcast
10:35 AM 73.4 °F - 68.0 °F 83% 29.98 in 10.0 mi SSW 13.8 mph - N/A   Mostly Cloudy
10:55 AM 77.0 °F - 68.0 °F 74% 29.98 in 10.0 mi South 13.8 mph 20.7 mph N/A   Scattered Clouds
11:15 AM 77.0 °F - 68.0 °F 74% 29.98 in 10.0 mi South 10.4 mph - N/A   Mostly Cloudy
11:35 AM 78.8 °F - 68.0 °F 69% 29.97 in 10.0 mi SSW 11.5 mph 17.3 mph N/A   Mostly Cloudy
12:15 PM 78.8 °F - 68.0 °F 69% 29.96 in 10.0 mi South 11.5 mph 21.9 mph N/A   Clear
12:35 PM 80.6 °F 83.2 °F 68.0 °F 65% 29.96 in 10.0 mi South 15.0 mph - N/A   Clear
12:55 PM 80.6 °F 83.2 °F 68.0 °F 65% 29.95 in 10.0 mi South 12.7 mph 16.1 mph N/A   Clear
1:15 PM 82.4 °F 84.6 °F 66.2 °F 58% 29.94 in 10.0 mi SSE 16.1 mph 19.6 mph N/A   Scattered Clouds
1:35 PM 82.4 °F 84.6 °F 66.2 °F 58% 29.93 in 10.0 mi SSE 15.0 mph 21.9 mph N/A   Clear
1:55 PM 82.4 °F 83.9 °F 64.4 °F 54% 29.92 in 10.0 mi SSE 17.3 mph 23.0 mph N/A   Clear
2:15 PM 84.2 °F 85.6 °F 64.4 °F 51% 29.91 in 10.0 mi South 15.0 mph 20.7 mph N/A   Clear
2:35 PM 84.2 °F 85.6 °F 64.4 °F 51% 29.90 in 10.0 mi South 13.8 mph 24.2 mph N/A   Clear
2:55 PM 84.2 °F 85.6 °F 64.4 °F 51% 29.89 in 10.0 mi South 12.7 mph 19.6 mph N/A   Clear
3:15 PM 86.0 °F 87.3 °F 64.4 °F 48% 29.88 in 10.0 mi SSE 17.3 mph 21.9 mph N/A   Clear
3:35 PM 84.2 °F 85.6 °F 64.4 °F 51% 29.88 in 10.0 mi SSE 11.5 mph - N/A   Clear
3:55 PM 84.2 °F 85.0 °F 62.6 °F 48% 29.88 in 10.0 mi SSE 17.3 mph 26.5 mph N/A   Clear
4:15 PM 84.2 °F 85.6 °F 64.4 °F 51% 29.88 in 10.0 mi South 12.7 mph - N/A   Clear
4:35 PM 84.2 °F 85.0 °F 62.6 °F 48% 29.88 in 10.0 mi SSE 13.8 mph 23.0 mph N/A   Clear
4:55 PM 84.2 °F 85.6 °F 64.4 °F 51% 29.88 in 10.0 mi SE 20.7 mph - N/A   Clear
5:15 PM 84.2 °F 85.0 °F 62.6 °F 48% 29.89 in 10.0 mi South 16.1 mph 20.7 mph N/A   Clear
5:35 PM 82.4 °F 83.4 °F 62.6 °F 51% 29.89 in 10.0 mi SSE 10.4 mph 19.6 mph N/A   Clear
5:55 PM 82.4 °F 83.4 °F 62.6 °F 51% 29.89 in 10.0 mi SSE 15.0 mph - N/A   Clear
6:15 PM 82.4 °F 83.4 °F 62.6 °F 51% 29.90 in 10.0 mi SSE 10.4 mph - N/A   Scattered Clouds
6:35 PM 80.6 °F 81.8 °F 62.6 °F 54% 29.90 in 10.0 mi SSE 9.2 mph - N/A   Scattered Clouds
6:55 PM 80.6 °F 82.3 °F 64.4 °F 58% 29.90 in 10.0 mi SE 9.2 mph - N/A   Scattered Clouds
7:15 PM 78.8 °F - 64.4 °F 61% 29.90 in 10.0 mi SE 6.9 mph - N/A   Clear
7:35 PM 78.8 °F - 64.4 °F 61% 29.91 in 10.0 mi SE 6.9 mph - N/A   Clear
7:55 PM 77.0 °F - 64.4 °F 65% 29.91 in 10.0 mi Calm Calm - N/A   Clear
8:15 PM 77.0 °F - 62.6 °F 61% 29.92 in 10.0 mi SE 6.9 mph - N/A   Clear
8:35 PM 77.0 °F - 62.6 °F 61% 29.93 in 10.0 mi Calm Calm - N/A   Clear
8:55 PM 77.0 °F - 64.4 °F 65% 29.93 in 10.0 mi Calm Calm - N/A   Clear
9:15 PM 77.0 °F - 64.4 °F 65% 29.94 in 10.0 mi SSE 11.5 mph 16.1 mph N/A   Clear
9:35 PM 77.0 °F - 64.4 °F 65% 29.94 in 10.0 mi SE 11.5 mph 19.6 mph N/A   Clear
9:55 PM 77.0 °F - 64.4 °F 65% 29.95 in 10.0 mi SE 10.4 mph - N/A   Clear
10:15 PM 73.4 °F - 64.4 °F 73% 29.95 in 10.0 mi SE 10.4 mph - N/A   Clear
10:35 PM 73.4 °F - 64.4 °F 73% 29.95 in 10.0 mi SSE 12.7 mph 19.6 mph N/A   Clear
10:55 PM 73.4 °F - 64.4 °F 73% 29.95 in 10.0 mi SSE 12.7 mph - N/A   Clear
11:35 PM 71.6 °F - 66.2 °F 83% 29.96 in 10.0 mi SSE 9.2 mph - N/A   Scattered Clouds
11:55 PM 71.6 °F - 66.2 °F 83% 29.96 in 10.0 mi SE 13.8 mph 18.4 mph N/A   Overcast